TimeEST,TemperatureF,Dew PointF,Humidity,Sea Level PressureIn,VisibilityMPH,Wind Direction,Wind SpeedMPH,Gust SpeedMPH,PrecipitationIn,Events,Conditions,WindDirDegrees,DateUTC
12:53 AM,33.1,28.0,82,30.25,10.0,WNW,4.6,-,N/A,,Overcast,300,2013-03-07 05:53:00
1:53 AM,33.1,28.0,82,30.26,10.0,NW,5.8,-,N/A,,Overcast,320,2013-03-07 06:53:00
2:53 AM,32.0,28.9,88,30.26,10.0,NW,4.6,-,N/A,,Overcast,310,2013-03-07 07:53:00
3:03 AM,32.0,28.4,87,30.23,10.0,NW,5.8,-,N/A,,Overcast,320,2013-03-07 08:03:00
3:53 AM,32.0,28.9,88,30.27,9.0,NNW,9.2,-,N/A,,Overcast,330,2013-03-07 08:53:00
4:11 AM,32.0,28.4,87,30.25,9.0,NNW,6.9,-,N/A,,Overcast,330,2013-03-07 09:11:00
4:53 AM,32.0,28.0,85,30.29,10.0,NW,8.1,-,N/A,,Overcast,320,2013-03-07 09:53:00
5:24 AM,32.0,28.4,87,30.27,10.0,NNW,6.9,-,N/A,,Overcast,330,2013-03-07 10:24:00
5:53 AM,32.0,28.0,85,30.31,10.0,NW,6.9,-,N/A,,Overcast,320,2013-03-07 10:53:00
6:53 AM,32.0,28.0,85,30.32,10.0,NNW,9.2,-,N/A,,Overcast,340,2013-03-07 11:53:00
7:53 AM,32.0,28.0,85,30.35,10.0,NNW,8.1,-,N/A,,Overcast,330,2013-03-07 12:53:00
8:53 AM,33.1,28.0,82,30.37,10.0,NNW,9.2,-,N/A,,Overcast,330,2013-03-07 13:53:00
9:20 AM,33.8,26.6,75,30.34,10.0,NNW,8.1,-,N/A,,Overcast,340,2013-03-07 14:20:00
9:53 AM,34.0,25.0,70,30.38,10.0,North,9.2,-,N/A,,Overcast,360,2013-03-07 14:53:00
10:53 AM,35.1,21.9,59,30.38,10.0,North,9.2,-,N/A,,Overcast,10,2013-03-07 15:53:00
11:53 AM,35.1,21.9,59,30.38,10.0,NNW,11.5,-,N/A,,Overcast,340,2013-03-07 16:53:00
12:53 PM,36.0,21.9,57,30.37,10.0,NNW,9.2,-,N/A,,Overcast,340,2013-03-07 17:53:00
1:53 PM,36.0,21.0,55,30.36,10.0,NW,3.5,-,N/A,,Overcast,320,2013-03-07 18:53:00
2:53 PM,36.0,21.9,57,30.37,10.0,NNW,9.2,-,N/A,,Overcast,330,2013-03-07 19:53:00
3:53 PM,36.0,21.9,57,30.38,10.0,North,10.4,-,N/A,,Overcast,350,2013-03-07 20:53:00
4:53 PM,36.0,23.0,59,30.38,10.0,NNW,8.1,-,N/A,,Overcast,340,2013-03-07 21:53:00
5:53 PM,35.1,21.0,57,30.39,10.0,North,5.8,-,N/A,,Overcast,360,2013-03-07 22:53:00
6:53 PM,34.0,23.0,64,30.40,10.0,NNW,9.2,-,N/A,,Overcast,340,2013-03-07 23:53:00
7:53 PM,33.1,24.1,70,30.42,10.0,NNW,9.2,-,N/A,,Overcast,330,2013-03-08 00:53:00
8:53 PM,30.0,21.9,72,30.43,10.0,North,6.9,-,N/A,,Partly Cloudy,350,2013-03-08 01:53:00
9:53 PM,28.9,21.0,72,30.43,10.0,North,3.5,-,N/A,,Clear,360,2013-03-08 02:53:00
10:53 PM,27.0,19.9,75,30.43,10.0,Calm,Calm,-,N/A,,Clear,0,2013-03-08 03:53:00
11:53 PM,24.8,19.4,80,30.40,10.0,Calm,Calm,-,N/A,,Clear,0,2013-03-08 04:53:00